Lincolnton, NC

7:20 PM EDT on July 20, 2017 (GMT -0400)
Lincolnton-Lincoln County Regional

Weather History for KIPJ - April, 2014

Change the Weather History Date:

Monday, April 7, 2014

  Actual Average (KCLT) Record (KCLT)
Temperature  
Mean Temperature 52 °F -  
Max Temperature 59 °F 69 °F 89 °F (1929)
Min Temperature 46 °F 44 °F 25 °F (2007)
Degree Days  
Heating Degree Days 12    
Growing Degree Days 2 (Base 50)    
Moisture  
Dew Point 48 °F    
Average Humidity 90    
Maximum Humidity 97    
Minimum Humidity 53    
Precipitation  
Precipitation 1.39 in - - ()
Sea Level Pressure  
Sea Level Pressure 29.87 in    
Wind  
Wind Speed 3 mph (NNW)    
Max Wind Speed 8 mph    
Max Gust Speed 18 mph    
Visibility 7 miles    
Events Rain    
Averages and records for this station are not official NWS values.
T = Trace of Precipitation, MM = Missing Value Source: NWS Daily Summary

Daily Weather History Graph

Daily Weather History Graph

Search for Another Location

Airport or City:

Trip Planner

Search our weather history database for the weather conditions in past years. The results will help you decide how hot, cold, wet, or windy it might be!

Date:

Astronomy

Apr. 07, 2014 Rise Set
Actual Time 7:02 AM EDT 7:51 PM EDT
Civil Twilight 6:37 AM EDT 8:17 PM EDT
Nautical Twilight 6:06 AM EDT 8:47 PM EDT
Astronomical Twilight 5:35 AM EDT 9:19 PM EDT
Moon 1:02 PM EDT (4/7) 2:21 AM EDT (4/7)
Length of Visible Light 13h 39m
Length of Day
12h 48m
First Quarter, 53% of the Moon is Illuminated
Apr 7
First Quarter
Apr 15
Full
Apr 22
Last Quarter
Apr 29
New
May 6
First Quarter

Hourly Weather History & Observations

Time (EDT) Temp. Windchill Dew Point Humidity Pressure Visibility Wind Dir Wind Speed Gust Speed Precip Events Conditions
12:15 AM 54.1 °F - 37.4 °F 53% 30.07 in 10.0 mi Calm Calm - N/A   Overcast
12:35 AM 54.0 °F - 37.6 °F 54% 30.07 in 10.0 mi Calm Calm - N/A   Overcast
12:55 AM 53.6 °F - 37.4 °F 54% 30.07 in 10.0 mi Calm Calm - N/A   Overcast
1:15 AM 53.8 °F - 38.7 °F 57% 30.06 in 10.0 mi Calm Calm - N/A   Overcast
1:35 AM 53.1 °F - 39.7 °F 61% 30.07 in 10.0 mi Calm Calm - N/A   Overcast
1:55 AM 52.3 °F - 41.0 °F 65% 30.05 in 10.0 mi Calm Calm - N/A Rain Rain
2:15 AM 51.6 °F - 41.9 °F 69% 30.05 in 10.0 mi NE 3.5 mph - N/A   Light Drizzle
2:35 AM 51.1 °F - 42.3 °F 72% 30.03 in 10.0 mi North 3.5 mph - N/A   Overcast
2:55 AM 50.7 °F - 42.8 °F 74% 30.01 in 10.0 mi North 5.8 mph - N/A   Overcast
3:15 AM 50.0 °F - 43.0 °F 77% 30.01 in 10.0 mi North 4.6 mph - N/A   Drizzle
3:35 AM 49.3 °F - 43.5 °F 81% 30.00 in 7.0 mi NE 6.9 mph - N/A Rain Light Rain
3:55 AM 48.6 °F - 44.4 °F 86% 29.99 in 10.0 mi NNE 4.6 mph - N/A Rain Rain
4:15 AM 48.0 °F - 45.5 °F 91% 29.98 in 7.0 mi NNE 4.6 mph - 0.02 in Rain Light Rain
4:35 AM 47.7 °F - 45.5 °F 92% 29.99 in 7.0 mi NNE 6.9 mph - 0.03 in Rain Rain
4:55 AM 47.3 °F - 45.5 °F 93% 29.97 in 5.0 mi NE 6.9 mph - 0.08 in Rain Rain
5:15 AM 46.8 °F - 45.3 °F 95% 29.97 in 5.0 mi NE 6.9 mph - 0.04 in Rain Rain
5:35 AM 46.4 °F 42.9 °F 44.6 °F 93% 29.98 in 5.0 mi NNE 6.9 mph - N/A Rain Rain
5:55 AM 46.6 °F - 45.1 °F 95% 29.98 in 2.0 mi NE 8.1 mph - 0.18 in Rain Light Rain
6:15 AM 46.6 °F - 45.3 °F 95% 29.98 in 5.0 mi North 4.6 mph - 0.06 in Rain Heavy Rain
6:35 AM 46.6 °F - 45.3 °F 95% 29.97 in 3.0 mi North 5.8 mph - 0.16 in Rain Rain
6:55 AM 46.6 °F - 45.3 °F 95% 29.97 in 4.0 mi NE 5.8 mph - 0.26 in Rain Heavy Rain
7:15 AM 46.4 °F 42.4 °F 45.1 °F 95% 29.96 in 5.0 mi NE 8.1 mph - 0.05 in Rain Rain
7:35 AM 46.4 °F 44.3 °F 45.0 °F 95% 29.95 in 1.8 mi ENE 4.6 mph - 0.14 in Rain Light Rain
7:55 AM 46.4 °F 42.9 °F 45.0 °F 95% 29.95 in 3.0 mi ENE 6.9 mph - 0.22 in Rain Rain
8:15 AM 46.2 °F 43.3 °F 45.1 °F 96% 29.95 in 4.0 mi NE 5.8 mph - 0.06 in Rain Heavy Rain
8:35 AM 46.0 °F 43.9 °F 45.0 °F 96% 29.95 in 1.2 mi North 4.6 mph - 0.17 in   Overcast
8:55 AM 46.4 °F 45.2 °F 45.1 °F 95% 29.97 in 2.5 mi NW 3.5 mph - 0.24 in   Overcast
9:15 AM 46.0 °F 44.8 °F 45.0 °F 96% 29.98 in 1.0 mi NNW 3.5 mph - 0.11 in   Overcast
9:35 AM 46.2 °F 43.3 °F 45.1 °F 96% 30.02 in 4.0 mi West 5.8 mph - 0.17 in Rain Heavy Rain
9:55 AM 46.4 °F - 45.1 °F 95% 29.98 in 2.0 mi Calm Calm - 0.24 in   Overcast
10:15 AM 46.4 °F - 45.5 °F 97% 29.99 in 5.0 mi Calm Calm - 0.03 in Rain Rain
10:35 AM 46.6 °F - 45.5 °F 96% 29.99 in 1.8 mi Calm Calm - 0.09 in   Overcast
10:55 AM 46.8 °F - 45.7 °F 96% 29.96 in 4.0 mi SSE 3.5 mph - 0.14 in Rain Rain
11:15 AM 47.3 °F - 46.4 °F 97% 29.92 in 10.0 mi SE 6.9 mph - 0.01 in Rain Light Rain
11:35 AM 47.3 °F - 46.2 °F 96% 29.89 in 10.0 mi ESE 6.9 mph - 0.01 in Rain Light Rain
11:55 AM 48.2 °F - 46.4 °F 93% 29.85 in 10.0 mi SW 3.5 mph 18.4 mph N/A Rain Light Rain
12:15 PM 48.6 °F - 47.1 °F 95% 29.88 in 10.0 mi Calm Calm - N/A   Overcast
12:35 PM 49.1 °F - 47.3 °F 93% 29.88 in 10.0 mi Calm Calm - N/A   Overcast
12:55 PM 49.1 °F - 47.5 °F 94% 29.89 in 10.0 mi West 3.5 mph - N/A   Overcast
1:15 PM 49.6 °F - 48.2 °F 95% 29.90 in 10.0 mi WSW 6.9 mph - N/A   Light Drizzle
1:35 PM 50.0 °F - 48.4 °F 94% 29.90 in 10.0 mi WSW 4.6 mph - N/A   Overcast
1:55 PM 50.4 °F - 48.6 °F 94% 29.90 in 10.0 mi WSW 4.6 mph - N/A   Light Drizzle
2:15 PM 50.5 °F - 48.7 °F 94% 29.87 in 10.0 mi SSW 3.5 mph - N/A   Overcast
2:35 PM 50.9 °F - 49.1 °F 94% 29.84 in 10.0 mi Calm Calm - N/A Rain Rain
2:55 PM 51.1 °F - 49.5 °F 94% 29.83 in 10.0 mi Calm Calm - N/A   Overcast
3:15 PM 51.6 °F - 49.8 °F 94% 29.82 in 10.0 mi Calm Calm - N/A   Overcast
3:35 PM 52.0 °F - 50.2 °F 94% 29.81 in 10.0 mi West 4.6 mph - N/A   Overcast
3:55 PM 52.3 °F - 50.5 °F 94% 29.80 in 10.0 mi Calm Calm - N/A   Overcast
4:15 PM 52.9 °F - 51.1 °F 94% 29.76 in 10.0 mi North 3.5 mph - N/A   Overcast
4:35 PM 53.1 °F - 51.1 °F 93% 29.76 in 10.0 mi Calm Calm - N/A   Overcast
4:55 PM 53.1 °F - 51.3 °F 94% 29.74 in 10.0 mi Calm Calm - N/A   Overcast
5:15 PM 53.1 °F - 51.3 °F 94% 29.75 in 10.0 mi Calm Calm - N/A   Overcast
5:35 PM 53.1 °F - 51.4 °F 94% 29.73 in 10.0 mi Calm Calm - N/A   Overcast
5:55 PM 53.1 °F - 51.6 °F 95% 29.73 in 7.0 mi Calm Calm - N/A   Overcast
6:15 PM 53.2 °F - 52.0 °F 95% 29.72 in 5.0 mi Calm Calm - 0.01 in Rain Rain
6:35 PM 52.9 °F - 51.8 °F 96% 29.71 in 5.0 mi NW 3.5 mph - 0.01 in   Overcast
6:55 PM 52.7 °F - 51.4 °F 95% 29.71 in 3.0 mi Calm Calm - 0.01 in   Overcast
7:15 PM 52.3 °F - 51.4 °F 97% 29.71 in 3.0 mi Calm Calm - N/A   Overcast
7:35 PM 52.3 °F - 51.4 °F 97% 29.70 in 3.0 mi Calm Calm - N/A   Overcast
7:55 PM 52.5 °F - 51.6 °F 97% 29.70 in 2.0 mi Calm Calm - N/A   Overcast
8:15 PM 52.2 °F - 51.3 °F 97% 29.70 in 2.5 mi Calm Calm - N/A   Overcast
8:35 PM 52.9 °F - 52.0 °F 97% 29.70 in 4.0 mi Calm Calm - N/A   Overcast
8:55 PM 53.2 °F - 52.3 °F 97% 29.70 in 4.0 mi Calm Calm - N/A   Overcast
9:15 PM 55.6 °F - 54.7 °F 97% 29.71 in 7.0 mi SW 4.6 mph - N/A   Overcast
9:35 PM 56.7 °F - 55.8 °F 97% 29.71 in 10.0 mi SSW 4.6 mph - N/A   Overcast
9:55 PM 57.6 °F - 56.3 °F 96% 29.71 in 10.0 mi SSW 5.8 mph - N/A   Overcast
10:15 PM 58.1 °F - 56.5 °F 94% 29.70 in 10.0 mi SSW 6.9 mph - N/A   Overcast
10:35 PM 58.5 °F - 57.2 °F 96% 29.70 in 10.0 mi SW 3.5 mph - N/A   Overcast
10:55 PM 59.0 °F - 57.6 °F 95% 29.69 in 7.0 mi SW 4.6 mph - N/A   Overcast
11:15 PM 59.5 °F - 58.1 °F 95% 29.68 in 4.0 mi SW 4.6 mph - N/A   Heavy Drizzle
11:35 PM 59.7 °F - 58.3 °F 95% 29.67 in 5.0 mi SW 5.8 mph - N/A   Drizzle
11:55 PM 59.9 °F - 58.5 °F 95% 29.67 in 5.0 mi SW 5.8 mph - 0.01 in   Drizzle